ATLAS CENTAUR 2 DEB, 700

Orbit data source: Space-Track

ATLAS CENTAUR 2 DEB, 700 is space debris in LEO originally from a launch on Wed, 27 Nov 1963 UTC launched from the Air Force Eastern Test Range (AFETR). Debris objects in space refer to the collection of defunct objects orbiting the Earth. Examples of debris include non-operational satellites, rocket bodies, and fragments generated from explosions, collisions, or faulty payload assembly.

Loading next visibility...
Identifier
700, 1963-047F
Orbit
LEO
Country
Flag of USUS
Related business
Manufacturer
GD/Convair
Mission
Spacecraft
Bus & Motor
CENTAUR PART, Unknown motor
Mass
Unknown
Launch date (UTC)
1963-11-27 (62 years ago)
Launch vehicle
Unknown
Launch site
Air Force Eastern Test Range (AFETR)
Object type
Payload
Rocket body
Debris
Shape & HBR
Unknown shape, 0.7 m
Radar Cross Section
Medium (>0.1 m² and <1 m²)

Expand to show TLE details & history
Last TLE update: 13 hours ago

TLE from 13 hours ago
0 ATLAS CENTAUR 2 DEB
1 00700U 63047F   26140.42182865  .00000226  00000-0  55472-4 0  9993
2 00700  30.4811 169.8233 0717122 226.7576 127.0943 13.40188149 46402
Epoch: 2026-05-20T10:07Z
TLE epoch observation values (Epoch: 2026-05-20T10:07:25.995Z)
Latitude
0.00002°
Longitude
139.88341°
Altitude
1,453.807 km
Speed
6.971 km/s
True Right ascension
11h 19m 17s
True Declination
0° 00' 00"
Sunlit
Object was in daylight at epoch
Visualization orbit readout
Latitude
Unknown
Longitude
Unknown
Altitude
Unknown
Speed
Unknown
Apparent Right ascension
Unknown
Apparent Declination
Unknown
Sunlit
N/A
Visualization observer readout
Local Sidereal Time
07:38:19
Azimuth
Unknown
Elevation
Unknown
Doppler factor
Unknown
Orbital elements
Apogee altitude
1,649.375 km
Perigee altitude
575.074 km
Semi-major axis
7,490.362 km
Eccentricity
0.07171
Inclination
30.4811°
RAAN
169.8233°
Arg. of periapsis
226.7576°
True anomaly
133.30012°
Mean anomaly
127.0943°
Eccentric anomaly
130.23115°
Mean motion
3.34803 °/min
Orbital period
107.53 mins
BSTAR
0.000055472
Loading maneuver chart data...
Computing Atmospheric mass density...

Documentation

Showing up to 5 results
|